TimeMST,TemperatureF,Dew PointF,Humidity,Sea Level PressureIn,VisibilityMPH,Wind Direction,Wind SpeedMPH,Gust SpeedMPH,PrecipitationIn,Events,Conditions,WindDirDegrees,DateUTC
12:53 AM,45.0,27.0,49,29.81,10.0,SSW,8.1,-,N/A,,Clear,210,2013-03-03 07:53:00
1:53 AM,42.1,28.0,58,29.80,10.0,WSW,10.4,-,N/A,,Clear,240,2013-03-03 08:53:00
2:53 AM,44.1,27.0,51,29.77,10.0,WSW,10.4,-,N/A,,Mostly Cloudy,240,2013-03-03 09:53:00
3:53 AM,43.0,28.0,56,29.75,10.0,WSW,12.7,-,N/A,,Mostly Cloudy,240,2013-03-03 10:53:00
4:53 AM,43.0,28.0,56,29.74,10.0,SW,12.7,-,N/A,,Overcast,230,2013-03-03 11:53:00
5:53 AM,41.0,27.0,57,29.73,10.0,SW,12.7,-,N/A,,Scattered Clouds,220,2013-03-03 12:53:00
6:53 AM,39.9,27.0,60,29.73,10.0,SW,11.5,-,N/A,,Scattered Clouds,220,2013-03-03 13:53:00
7:53 AM,39.0,28.0,65,29.71,10.0,SW,10.4,-,N/A,,Overcast,220,2013-03-03 14:53:00
8:53 AM,42.1,28.0,58,29.68,10.0,SW,11.5,-,N/A,,Mostly Cloudy,230,2013-03-03 15:53:00
9:53 AM,43.0,28.9,58,29.65,10.0,Calm,Calm,-,N/A,,Scattered Clouds,0,2013-03-03 16:53:00
10:53 AM,46.0,28.9,51,29.62,10.0,South,5.8,-,N/A,,Mostly Cloudy,170,2013-03-03 17:53:00
11:53 AM,48.9,30.0,48,29.61,10.0,NNE,4.6,-,N/A,,Mostly Cloudy,20,2013-03-03 18:53:00
12:53 PM,50.0,30.0,46,29.57,10.0,NE,9.2,-,N/A,,Mostly Cloudy,50,2013-03-03 19:53:00
1:53 PM,54.0,30.9,41,29.52,10.0,East,9.2,-,N/A,,Mostly Cloudy,80,2013-03-03 20:53:00
2:29 PM,48.9,30.9,50,29.52,10.0,NNW,31.1,49.5,N/A,,Mostly Cloudy,330,2013-03-03 21:29:00
2:40 PM,36.0,30.9,82,29.56,1.0,WNW,39.1,58.7,0.00,Rain,Light Rain,300,2013-03-03 21:40:00
2:43 PM,34.0,30.0,85,29.56,0.5,WNW,41.4,58.7,0.00,Rain-Snow-Thunderstorm,Light Thunderstorms and Rain,300,2013-03-03 21:43:00
2:47 PM,33.8,30.2,87,29.56,0.2,NW,38.0,58.7,0.00,Fog-Snow-Thunderstorm,Light Thunderstorms and Ice Pellets,310,2013-03-03 21:47:00
3:02 PM,33.1,30.9,92,29.58,0.2,NW,39.1,51.8,0.02,Snow-Hail-Thunderstorm,Heavy Thunderstorms with Hail,320,2013-03-03 22:02:00
3:17 PM,30.0,30.0,100,29.58,0.2,NNW,42.6,57.5,0.11,Snow-Thunderstorm,Heavy Thunderstorms and Snow,330,2013-03-03 22:17:00
3:25 PM,30.0,28.9,96,29.61,0.2,NNW,38.0,57.5,0.11,Fog-Snow-Thunderstorm,Heavy Thunderstorms and Snow,330,2013-03-03 22:25:00
3:34 PM,30.0,28.0,92,29.63,0.2,NW,36.8,51.8,0.11,Fog-Snow,Snow,320,2013-03-03 22:34:00
3:53 PM,28.9,28.0,96,29.70,0.1,NW,39.1,54.1,0.11,Fog-Snow,Light Snow,320,2013-03-03 22:53:00
4:04 PM,28.0,28.0,100,29.66,0.1,NW,32.2,48.3,0.01,Fog-Snow,Snow,320,2013-03-03 23:04:00
4:17 PM,30.0,26.1,85,29.69,4.0,WNW,19.6,31.1,0.06,Snow,Light Snow,300,2013-03-03 23:17:00
4:35 PM,30.9,24.1,76,29.70,10.0,WNW,8.1,-,0.06,,Overcast,290,2013-03-03 23:35:00
4:53 PM,33.1,23.0,66,29.75,9.0,West,12.7,-,0.06,,Overcast,270,2013-03-03 23:53:00
5:53 PM,34.0,19.0,54,29.78,10.0,WNW,17.3,-,N/A,,Mostly Cloudy,290,2013-03-04 00:53:00
6:53 PM,33.1,17.1,52,29.81,10.0,WNW,18.4,-,0.00,,Mostly Cloudy,300,2013-03-04 01:53:00
7:53 PM,30.9,16.0,54,29.85,10.0,WNW,20.7,-,N/A,,Mostly Cloudy,290,2013-03-04 02:53:00
8:53 PM,28.0,17.1,63,29.87,10.0,NNW,8.1,-,N/A,,Clear,340,2013-03-04 03:53:00
9:53 PM,26.1,18.0,71,29.87,10.0,WNW,18.4,-,N/A,,Clear,300,2013-03-04 04:53:00
10:53 PM,27.0,15.1,61,29.85,10.0,WNW,31.1,40.3,N/A,,Clear,290,2013-03-04 05:53:00
11:53 PM,26.1,12.0,55,29.88,10.0,WNW,27.6,39.1,N/A,,Partly Cloudy,290,2013-03-04 06:53:00